This demonstration page uses our WeatherBlox Daily Observations layout. Learn more.

Left ArrowRight Arrow

Hourly Observations for June 27, 2021

Temp ( °F °C ) Dew Point ( °F °C ) Humidity (%) Winds ( mph kmh ) Pressure ( in mb ) Visibility ( mi km ) Precip ( " mm )
12:15 am 00:15 Clear 60 15.4 55 12.9 85 85 NE 3 6 29.95 1014 10 16 N/A
12:35 am 00:35 Clear 59 15.1 56 13.2 89 89 N N/A 29.95 1014 10 16 N/A
12:55 am 00:55 Clear 60 15.5 55 13 85 85 W 5 7 29.95 1014 10 16 N/A
1:15 am 01:15 Clear 59 15.1 56 13.1 88 88 WSW 6 9 29.96 1015 10 16 N/A
1:35 am 01:35 Clear 58 14.7 55 13 90 90 W 7 11 29.97 1015 10 16 N/A
1:55 am 01:55 Clear 58 14.3 55 13 92 92 W 5 7 29.96 1015 10 16 N/A
2:15 am 02:15 Clear 58 14.3 55 12.8 91 91 WNW 5 7 29.96 1015 10 16 N/A
2:35 am 02:35 Mostly Cloudy 57 13.7 55 12.5 93 93 NW 5 7 29.97 1015 10 16 N/A
2:55 am 02:55 Partly Cloudy 56 13.5 54 12.4 93 93 WNW 3 6 29.97 1015 10 16 N/A
3:15 am 03:15 Clear 56 13.3 54 12.3 94 94 WNW 6 9 29.97 1015 10 16 N/A
3:35 am 03:35 Partly Cloudy 55 12.9 53 11.8 93 93 NW 3 6 29.97 1015 10 16 N/A
3:55 am 03:55 Clear 55 12.7 53 11.7 94 94 N N/A 29.97 1015 10 16 N/A
4:15 am 04:15 Clear 55 12.8 53 11.7 93 93 WNW 7 11 29.98 1015 10 16 N/A
4:35 am 04:35 Clear 56 13.2 53 11.7 91 91 W 5 7 29.97 1015 10 16 N/A
4:55 am 04:55 Clear 55 13 53 11.6 91 91 N N/A 29.98 1015 10 16 N/A
5:15 am 05:15 Partly Cloudy 56 13.1 53 11.5 90 90 WNW 6 9 29.98 1015 10 16 N/A
5:35 am 05:35 Clear 55 12.7 52 11.3 91 91 WNW 6 9 29.99 1015 10 16 N/A
5:55 am 05:55 Clear 55 12.6 52 11.2 91 91 WNW 7 11 29.99 1015 10 16 N/A
6:15 am 06:15 Sunny 55 12.6 52 11.2 91 91 WNW 7 11 30.00 1016 10 16 N/A
6:35 am 06:35 Sunny 54 12.3 52 11.2 93 93 NW 5 7 30.01 1016 10 16 N/A
6:55 am 06:55 Sunny 56 13.5 54 12 91 91 WNW 6 9 30.01 1016 10 16 N/A
7:15 am 07:15 Sunny 58 14.2 54 12.4 89 89 N N/A 30.00 1016 10 16 N/A
7:35 am 07:35 Sunny 58 14.6 55 12.6 88 88 N N/A 30.00 1016 10 16 N/A
7:55 am 07:55 Mostly Cloudy 61 16.1 56 13.1 83 83 NW 3 6 29.99 1015 10 16 N/A
8:15 am 08:15 Partly Cloudy 63 17 56 13.3 79 79 W 3 6 29.98 1015 10 16 N/A
8:35 am 08:35 Sunny 64 18 57 13.7 76 76 W 3 6 29.97 1015 10 16 N/A
8:55 am 08:55 Partly Cloudy 65 18.5 58 14.2 76 76 W 6 9 29.97 1015 10 16 N/A
9:15 am 09:15 Partly Cloudy 66 19 58 14.4 75 75 WNW 3 6 29.97 1015 10 16 N/A
9:35 am 09:35 Partly Cloudy 67 19.5 59 15 75 75 W 6 9 29.98 1015 10 16 N/A
9:55 am 09:55 Cloudy 67 19.7 59 15.2 75 75 WNW 5 7 29.97 1015 10 16 N/A
10:15 am 10:15 Mostly Cloudy 69 20.4 60 15.4 73 73 W 3 6 29.96 1015 10 16 N/A
10:35 am 10:35 Partly Cloudy 70 21.3 59 15.2 68 68 N N/A 29.95 1014 10 16 N/A
10:55 am 10:55 Partly Cloudy 72 22.1 60 15.4 66 66 N 5 7 29.94 1014 10 16 N/A
11:15 am 11:15 Sunny 74 23.5 60 15.7 62 62 NNW 5 7 29.93 1014 10 16 N/A
11:35 am 11:35 Sunny 76 24.5 59 14.8 55 55 N N/A 29.92 1013 10 16 N/A
11:55 am 11:55 Sunny 77 25.1 57 13.9 50 50 S 3 6 29.91 1013 10 16 N/A
12:15 pm 12:15 Mostly Cloudy 77 25.2 57 13.8 49 49 N N/A 29.91 1013 10 16 N/A
12:35 pm 12:35 Cloudy 77 25 57 13.8 50 50 N N/A 29.91 1013 10 16 N/A
12:55 pm 12:55 Partly Cloudy 80 26.7 55 13 43 43 W 6 9 29.90 1012 10 16 N/A
1:15 pm 13:15 Sunny 80 26.5 52 11.1 38 38 NW 3 6 29.89 1012 10 16 N/A
1:35 pm 13:35 Mostly Cloudy 78 25.8 54 12.2 43 43 SSW 6 9 29.89 1012 10 16 N/A
1:55 pm 13:55 Mostly Cloudy 79 26.2 52 11 39 39 SW 6 9 29.89 1012 10 16 N/A
2:15 pm 14:15 Partly Cloudy 81 27.4 52 11.2 36 36 NNW 5 7 29.88 1012 10 16 N/A
2:35 pm 14:35 Partly Cloudy 80 26.5 53 11.7 40 40 WSW 9 15 29.89 1012 10 16 N/A
2:55 pm 14:55 Mostly Cloudy 80 26.4 54 12.1 41 41 WSW 3 6 29.89 1012 10 16 N/A
3:15 pm 15:15 Partly Cloudy 80 26.7 54 12.2 41 41 N N/A 29.89 1012 10 16 N/A
3:35 pm 15:35 Partly Cloudy 81 27 57 13.8 44 44 E 9 15 29.87 1012 10 16 N/A
3:55 pm 15:55 Partly Cloudy 80 26.5 56 13.3 44 44 E 13 20 29.88 1012 10 16 N/A
4:15 pm 16:15 Partly Cloudy 79 26.1 57 13.9 47 47 E 13 20 29.88 1012 10 16 N/A
4:35 pm 16:35 Partly Cloudy 79 26.3 56 13.1 44 44 E 13 20 29.88 1012 10 16 N/A
4:55 pm 16:55 Mostly Cloudy 77 25.1 57 13.9 50 50 E 12 19 29.89 1012 10 16 N/A
5:15 pm 17:15 Cloudy with Light Rain 74 23.4 60 15.3 61 61 E 9 15 29.90 1013 7 11 0.01 0.25
5:35 pm 17:35 Cloudy with Heavy Rain 71 21.6 63 17.2 76 76 SSW 6 9 29.94 1014 2 3 0.18 4.57
5:55 pm 17:55 Cloudy with Rain 69 20.7 62 16.4 77 77 E 7 11 29.94 1014 4 6 0.39 9.91
6:15 pm 18:15 Cloudy with Light Rain 70 21.3 61 16.1 72 72 ESE 8 13 29.92 1013 10 16 N/A
6:35 pm 18:35 Cloudy 71 21.6 62 16.5 73 73 ENE 5 7 29.92 1013 10 16 N/A
6:55 pm 18:55 Mostly Cloudy 72 22.2 62 16.5 70 70 NNE 3 6 29.92 1013 10 16 N/A
7:15 pm 19:15 Mostly Cloudy 71 21.9 62 16.8 73 73 N 5 7 29.93 1013 10 16 N/A
7:35 pm 19:35 Cloudy 73 22.5 63 17.3 73 73 N 5 7 29.92 1013 10 16 N/A
7:55 pm 19:55 Mostly Cloudy 72 22.1 62 16.6 71 71 N 3 6 29.92 1013 10 16 N/A
8:15 pm 20:15 Mostly Cloudy 71 21.8 63 17.3 76 76 N N/A 29.94 1014 10 16 N/A
8:35 pm 20:35 Mostly Cloudy 72 22 62 16.4 71 71 N N/A 29.93 1014 10 16 N/A
8:55 pm 20:55 Partly Cloudy 71 21.5 64 17.5 78 78 N N/A 29.94 1014 10 16 N/A
9:15 pm 21:15 Clear 70 21 63 17.2 79 79 N N/A 29.94 1014 10 16 N/A
9:35 pm 21:35 Clear 68 20 62 16.9 82 82 NE 5 7 29.95 1014 10 16 N/A
9:55 pm 21:55 Clear 67 19.5 62 16.7 84 84 NE 5 7 29.97 1015 10 16 N/A
10:15 pm 22:15 Clear 66 18.8 62 16.4 86 86 NE 5 7 29.98 1015 10 16 N/A
10:35 pm 22:35 Clear 65 18.5 62 16.4 88 88 N N/A 29.99 1016 10 16 N/A
10:55 pm 22:55 Clear 64 17.8 61 16.2 90 90 N 5 7 30.00 1016 10 16 N/A
11:15 pm 23:15 Clear 63 17.3 60 15.6 90 90 N N/A 30.01 1016 10 16 N/A
11:35 pm 23:35 Clear 63 17 60 15.3 90 90 N N/A 30.02 1017 10 16 N/A
11:55 pm 23:55 Clear 62 16.7 60 15.5 93 93 N N/A 30.01 1016 10 16 N/A

Powered by AerisWeather